User: anonymous   Login
Location: Aragnouet
(42.7874°N, 0.2165°E)
Time: 13:59:16
(UTC+00:00)
Language:

STARLINK-1202 - Orbit

View from above orbital plane
View from above orbital plane
View from above satellite
View from above satellite

Ground track
Ground track

The orbit data is extracted from the following two-line orbital elements,

1 45183U 20012F   20191.91670139 +.00011914 +00000-0 +83528-3 0  9990
2 45183 052.9996 333.7013 0000989 101.8088 258.9882 15.05588225001818
Epoch (UTC): 09 July 2020 22:00:03
Eccentricity: 0.0000989
inclination: 52.9996°
perigee height: 549 km
apogee height: 550 km
right ascension of ascending node: 333.7013°
argument of perigee: 101.8088°
revolutions per day: 15.05588225
mean anomaly at epoch: 258.9882°
orbit number at epoch: 181

The dashed part of the orbit path shows where the satellite is in the earth's shadow,  

DLR